Regional Weather Roundup
Issued by NWS

Home | Current Version | Previous Version | Graphics & Text | Print | Product List | Glossary On
Versions: 1 2 3 4 5 6 7 8 9 10 11 12 13 14 15 16 17 18 19 20 21 22 23 24 25 26 27 28 29 30 31 32 33 34 35 36 37 38 39 40 41 42 43 44 45 46 47 48 49 50
000
ASUS43 KMPX 241001
RWRMN
WEATHER ROUNDUP FOR MINNESOTA
NATIONAL WEATHER SERVICE TWIN CITIES/CHANHASSEN MN
500 AM CDT WED MAY 24 2017


NOTE: "FAIR" INDICATES FEW OR NO CLOUDS BELOW 12,000 FEET WITH NO
SIGNIFICANT WEATHER AND/OR OBSTRUCTIONS TO VISIBILITY. N/A MEANS
CURRENT SKY AND/OR WEATHER CONDITIONS ARE NOT AVAILABLE.

MNZ060>063-068>070-241100-
   Twin Cities Metro

CITY           SKY/WX    TMP DP  RH WIND       PRES   REMARKS
TWIN CITIES    PTCLDY    47  42  83 N9        29.78F
ST PAUL        CLEAR     47  44  90 NE6       29.80S
CRYSTAL        PTCLDY    47  41  80 N5        29.79S
BLAINE         CLEAR     48  46  93 MISG      29.79S
LAKEVILLE      MOCLDY    45  43  93 N6        29.78S
EDEN PRAIRIE   CLEAR     48  43  82 N6        29.77F
SOUTH ST PAUL  CLOUDY    47  43  84 N7        29.78S
LAKE ELMO      FAIR      45  43  93 N5        29.79F
$$
MNZ001>005-007-008-013>017-022>024-027-028-241100-
   Northwest Minnesota

CITY           SKY/WX    TMP DP  RH WIND       PRES   REMARKS
BEMIDJI        FOG       35  35 100 CALM      29.86F VSB 1/4
HALLOCK        CLEAR     43  39  87 SE8       29.86S
ROSEAU         CLEAR     39  34  81 CALM      29.87F
WARROAD        CLEAR     37 N/A N/A CALM        N/A
CROOKSTON      CLEAR     39  39 100 CALM      29.88S FOG
FOSSTON        FOG       34  32  93 CALM      29.87F VSB 1/2
DETROIT LAKES  CLEAR     43  41  93 CALM      29.86F
MOORHEAD       CLEAR     37  36  93 N5        29.87S
PARK RAPIDS    CLEAR     40  37  89 N5        29.85S
MAHNOMEN       FAIR      37  37  99 E5        29.86F
$$
MNZ006-009>011-018-025>026-241100-
   North Central Minnesota

CITY           SKY/WX    TMP DP  RH WIND       PRES   REMARKS
BAUDETTE       MOCLDY    34  34 100 CALM      29.87S
FLAG ISLAND    CLEAR     52  39  62 W7        29.86S
INTL FALLS     CLEAR     31  29  92 CALM      29.87F FOG
WASKISH        CLEAR     34  34 100 CALM      29.87F FOG
BIG FORK       CLEAR     30  30 100 CALM      29.87S
LONGVILLE      CLEAR     43  41  93 NE5       29.85S
GRAND RAPIDS   CLEAR     40  39  97 CALM      29.87S FOG
CRANE LAKE     FOG       28  28 100 CALM      29.89S VSB 3/4
COOK           CLEAR     30  30 100 CALM      29.86F
WALKER         FOG       35  35  99 CALM      29.86S VSB 3/4
$$
MNZ012-019>021-037-241100-
   Northeast Minnesota

CITY           SKY/WX    TMP DP  RH WIND       PRES   REMARKS
DULUTH         PTCLDY    45  44  97 NE7       29.82S
ELY            CLEAR     34  34 100 CALM      29.86S
HIBBING        CLEAR     34  34 100 N3        29.85S
EVELETH        CLEAR     40  37  87 CALM      29.86S
DULUTH HARBOR  MOCLDY    46  45  93 CALM      29.84S
TWO HARBORS    CLEAR     48  43  81 NE6       29.82S
SILVER BAY     CLEAR     43  41  93 CALM      29.82S
GRAND MARAIS     N/A     51  41  68 VRB6      29.83F
G MARAIS ARPRT CLEAR     37  34  87 N6        29.84F
$$
MNZ029>031-032-039>041-046>048-054>057-064-241100-
   West Central Minnesota

CITY           SKY/WX    TMP DP  RH WIND       PRES   REMARKS
FERGUS FALLS   CLOUDY    45  45 100 CALM      29.84F
WHEATON        CLOUDY    45  43  93 CALM      29.87F
MORRIS         CLOUDY    43  43 100 NW6       29.83F
ALEXANDRIA     CLEAR     47  45  93 NE8       29.84S
ELBOW LAKE     CLOUDY    44  44 100 N3        29.85F
WADENA         CLOUDY    45  43  93 N5        29.85S
GLENWOOD       CLEAR     46  45  93 N7        29.83S
APPLETON       PTCLDY    43  39  87 N6        29.84S
BENSON         MOCLDY    43  41  93 CALM      29.84F FOG
ORTONVILLE     CLOUDY    45  43  93 NW3       29.84F
MADISON        CLEAR     46  46 100 NW5       29.84S
WILLMAR        FAIR      48  46  93 NE6       29.83S
$$
MNZ033>034-036-042>043-049>051-058-059-241100-
   Central Minnesota

CITY           SKY/WX    TMP DP  RH WIND       PRES   REMARKS
ST CLOUD       CLOUDY    48  44  86 NE7       29.82S
SAUK CENTRE    CLOUDY    47  46  96 CALM      29.83S
PAYNESVILLE    CLEAR     45  45 100 N3        29.83S
AITKIN         FOG       43  41  93 CALM      29.83S VSB 3/4
PINE RIVER     CLEAR     43  43 100 CALM      29.88S
BRAINERD       CLOUDY    48  46  93 N5        29.84F
STAPLES        CLOUDY    46  45  93 CALM      29.84F
LONG PRAIRIE   CLOUDY    46  45  93 N5        29.84S
LITTLE FALLS   CLOUDY    46  45  93 CALM      29.84S
LITCHFIELD     PTCLDY    46  45  93 N5        29.82S
BUFFALO        CLOUDY    48  43  84 N10       29.81S
MAPLE LAKE     CLEAR     46  44  93 N5        29.82S
HUTCHINSON     CLEAR     47  45  92 N7        29.81S
$$
MNZ037-044-045-052-053-241100-
   East Central Minnesota

CITY           SKY/WX    TMP DP  RH WIND       PRES   REMARKS
PRINCETON      PTCLDY    48  45  87 NE5       29.82S
MORA           CLOUDY    45  43  93 CALM      29.84S
CAMBRIDGE      CLOUDY    48  41  76 NE6       29.80S
RUSH CITY      CLOUDY    45  43  92 NE5       29.82S
MOOSE LAKE     CLOUDY    46  43  87 N3        29.81S
HINCKLEY       CLOUDY    45  45 100 N5        29.82S
CLOQUET        CLOUDY    46  45  93 N3        29.83S
MCGREGOR       CLOUDY    45  45 100 CALM      29.84S
$$
MNZ071>073-080-081-089-090-097-098-241100-
   Southwest Minnesota

CITY           SKY/WX    TMP DP  RH WIND       PRES   REMARKS
MONTEVIDEO     PTCLDY    45  45 100 N6        29.83S
CANBY          MOCLDY    45  44  95 CALM      29.85S
MARSHALL       PTCLDY    44  44 100 N8        29.82F
REDWOOD FALLS  CLEAR     46  44  93 N7        29.80S
OLIVIA         CLEAR     45  43  93 N5        29.81S
PIPESTONE      CLOUDY    46  43  87 N5        29.81F
WINDOM         CLEAR     45  43  93 N8        29.79S
WORTHINGTON    CLEAR     43  42  97 N9        29.80S
JACKSON        CLEAR     43  43 100 CALM      29.78F
TRACY          MOCLDY    46  45  99 N7        29.82S
SLAYTON        PTCLDY    43  43  98 NW8       29.82S
$$
MNZ065>067-074>077-082>085-091>093-241100-
   South Central Minnesota

CITY           SKY/WX    TMP DP  RH WIND       PRES   REMARKS
NEW ULM        CLEAR     46  43  87 NE6       29.79S
ST JAMES       CLEAR     46  43  87 N8        29.79S
FAIRMONT       CLEAR     45  44  97 N12       29.77S
GLENCOE        CLOUDY    49  47  94 N6        29.78F
FARIBAULT      CLOUDY    46  45  93 N12G20    29.77F
OWATONNA       PTCLDY    46  43  87 N7        29.76S
WASECA         CLEAR     45  41  87 N8        29.77S
ALBERT LEA     CLOUDY    48  46  93 N9        29.75R
$$
MNZ078>079-086>088-094>096-241100-
   Southeast Minnesota

CITY           SKY/WX    TMP DP  RH WIND       PRES   REMARKS
ROCHESTER      CLOUDY    47  46  97 N12       29.74S
RED WING       CLOUDY    48  43  81 NE3       29.75S
STANTON        CLOUDY    47  44  88 N9        29.76S
DODGE CENTER   CLOUDY    46  45  93 N9        29.74S
WINONA         CLOUDY    52  46  82 N5        29.73F
AUSTIN         PTCLDY    46  45  93 N6        29.73S
PRESTON        CLOUDY    49  46  90 N6        29.73S
$$
ABBREVIATIONS USED IN REMARKS
   TC - TEMPERATURES IN CELSIUS
  WCI - WIND CHILL INDEX
   HX - HEAT INDEX
  VSB - VISIBILITY
$$



USA.gov is the U.S. government's official web portal to all federal, state and local government web resources and services.